{"data":{"norad_id":39019,"intl_designator":"2012-068A","name":"PLEIADES 1B","alt_names":[],"object_type":"PAYLOAD","status":"ACTIVE","operator":null,"country":"FR","launch_date":"2012-12-02","launch_site_code":"FRGUI","launch_vehicle":null,"mission":null,"orbit_class":"UNKNOWN","rcs_meters":5.438,"size_class":null,"mass_kg":null,"dimensions":null,"purposes":["earth_obs"],"wikipedia_slug":null,"has_3d_model":false,"image_url":null,"decayed_at":null,"tle_current":{"epoch":"2026-05-25T03:59:50.644896Z","epoch_age_seconds":67415,"freshness":"FRESH","line1":"1 39019U 12068A   26145.16655839  .00000015  00000+0  13086-4 0  9997","line2":"2 39019  98.1943 220.5345 0001366 103.3887 256.7465 14.58542514717497","mean_motion":14.58542514,"eccentricity":0.0001366,"inclination_deg":98.1943,"raan_deg":220.5345,"arg_perigee_deg":103.3887,"mean_anomaly_deg":256.7465,"bstar":1.3086e-5,"rev_number":71749,"period_min":98.728695679281,"perigee_km":696.91741247207,"apogee_km":698.85058140844,"semimajor_km":7076.0209969403,"source":"CELESTRAK","updated_at":"2026-05-25T13:38:12.781089Z"}}}